Volver al catálogo

STARLINK-11095

ActivoComunicacionesVLEO
NORAD 59720·PAYLOAD·🇺🇸 United States

Lanzado May 10, 2024 desde Vandenberg Space Force Base

Loading…

Próximos Pases (próximas 24 horas)

TLE

ActualizadoSource: CelesTrak SupGP

Época: Sep 15, 2026, 02:27 UTC

1 59720C 24088N   26258.10256944  .00060779  00000+0  50050-3 0  2588
2 59720  53.1562 112.2697 0001073  88.3161 329.3384 15.69686439    13

Sigue STARLINK-11095 en tiempo real con AllMySat

Download on the App Store